Location: LDNL
(36.4545°S, 141.6685°E)
Time: 07:12:02
(UTC+11:00)

Vanguard 3 - All Passes

Search period start: 26 January 2022 00:00
Search period end: 05 February 2022 00:00
Orbit: 508 x 3260 km, 33.3° (Epoch: 25 January)

Date Brightness Start Highest point End Pass type
(mag) Time Alt. Az. Time Alt. Az. Time Alt. Az.
26 Jan - 00:48:07 10° NW 00:55:58 48° NNE 01:09:34 10° E visible
26 Jan - 02:58:33 10° WNW 03:09:32 77° N 03:27:58 10° E visible
26 Jan - 05:10:55 10° W 05:25:29 74° NNW 05:45:33 10° ENE visible
26 Jan - 07:25:03 10° W 07:41:43 49° NNW 07:59:48 10° NE daylight
26 Jan - 09:43:56 10° W 09:56:15 21° NW 10:07:51 10° N daylight
26 Jan - 23:35:41 10° NNW 23:41:41 29° NE 23:51:07 10° E visible
27 Jan - 01:44:39 10° WNW 01:53:37 68° NNE 02:09:34 10° E visible
27 Jan - 03:56:06 10° W 04:08:25 79° N 04:27:48 10° ENE visible
27 Jan - 06:09:04 10° W 06:24:35 61° NNW 06:44:04 10° NE visible
27 Jan - 08:24:45 10° W 08:40:04 33° NW 08:55:37 10° NNE daylight
27 Jan - 22:25:22 10° NNE 22:28:07 13° NE 22:31:23 10° ENE night (unlit)
28 Jan - 00:31:21 10° NW 00:38:33 50° NNE 00:51:17 10° E visible
28 Jan - 02:41:47 10° W 02:51:56 78° N 03:09:32 10° E visible
28 Jan - 04:53:52 10° W 05:07:27 71° NNW 05:27:10 10° ENE visible
28 Jan - 07:07:44 10° W 07:23:22 45° NNW 07:41:20 10° NNE daylight
28 Jan - 09:27:14 10° W 09:37:57 18° NW 09:48:30 10° NNW daylight
28 Jan - 23:18:47 10° NNW 23:24:21 30° NE 23:33:10 10° E visible
29 Jan - 01:27:58 10° WNW 01:36:12 70° NNE 01:51:10 10° E visible
29 Jan - 03:39:15 10° W 03:50:39 77° N 04:09:22 10° ENE visible
29 Jan - 05:51:55 10° W 06:06:23 57° NNW 06:25:35 10° NE visible
29 Jan - 08:07:36 10° W 08:21:43 29° NW 08:36:48 10° N daylight
29 Jan - 22:07:59 10° NNE 22:10:48 13° NE 22:14:16 10° ENE visible
30 Jan - 00:14:39 10° NW 00:21:16 53° NNE 00:33:05 10° E visible
30 Jan - 02:25:05 10° W 02:34:26 78° N 02:51:05 10° E visible
30 Jan - 04:36:55 10° W 04:49:29 67° NNW 05:08:40 10° ENE visible
30 Jan - 06:50:35 10° W 07:05:06 40° NNW 07:22:38 10° NNE daylight
30 Jan - 09:11:12 10° WNW 09:19:45 15° NW 09:28:25 10° NNW daylight
30 Jan - 23:02:00 10° NNW 23:07:08 32° NE 23:15:19 10° E visible
31 Jan - 01:11:21 10° WNW 01:18:54 71° NNE 01:32:49 10° E visible
31 Jan - 03:22:28 10° W 03:32:59 74° N 03:50:51 10° ENE visible
31 Jan - 05:34:53 10° W 05:48:17 52° NNW 06:06:55 10° NE visible
31 Jan - 07:50:45 10° W 08:03:28 25° NW 08:17:37 10° N daylight
31 Jan - 21:50:44 10° NNE 21:53:35 14° NE 21:57:08 10° ENE visible
31 Jan - 23:58:02 10° NW 00:04:06 55° NNE 00:14:57 10° E visible
01 Feb - 02:08:27 10° W 02:17:02 77° N 02:32:38 10° E visible
01 Feb - 04:20:03 10° W 04:31:39 62° NNW 04:50:01 10° NE visible
01 Feb - 06:33:37 10° W 06:46:56 36° NNW 07:03:41 10° NNE daylight
01 Feb - 08:56:38 10° WNW 09:01:39 11° NW 09:06:49 10° NNW daylight
01 Feb - 22:45:15 10° NNW 22:50:00 34° NNE 22:57:33 10° E visible
02 Feb - 00:54:47 10° WNW 01:01:42 72° N 01:14:32 10° E visible
02 Feb - 03:05:45 10° W 03:15:26 71° N 03:32:17 10° ENE visible
02 Feb - 05:18:00 10° W 05:30:19 47° NNW 05:48:04 10° NE visible
02 Feb - 07:34:14 10° W 07:45:21 21° NW 07:58:00 10° N daylight
02 Feb - 21:33:37 10° N 21:36:27 15° NE 21:40:01 10° ENE visible
02 Feb - 23:41:27 10° WNW 23:47:02 57° NNE 23:56:56 10° E visible
03 Feb - 01:51:51 10° W 01:59:44 75° N 02:14:13 10° E visible
03 Feb - 04:03:15 10° W 04:13:55 57° NNW 04:31:16 10° NE visible
03 Feb - 06:16:52 10° W 06:28:53 31° NNW 06:44:26 10° NNE visible
03 Feb - 22:28:34 10° NW 22:32:59 35° NNE 22:39:54 10° E visible
04 Feb - 00:38:15 10° WNW 00:44:37 72° N 00:56:20 10° E visible
04 Feb - 02:49:05 10° W 02:57:58 66° NNW 03:13:42 10° ENE visible
04 Feb - 05:01:15 10° W 05:12:28 41° NNW 05:29:01 10° NE visible
04 Feb - 07:18:16 10° WNW 07:27:22 17° NW 07:37:48 10° N daylight
04 Feb - 21:16:34 10° N 21:19:24 17° NE 21:22:57 10° ENE visible
04 Feb - 23:24:55 10° WNW 23:30:04 59° NNE 23:39:01 10° E visible
